| time (UTC) | temp C | wind direction | speed KPH | gust KPH | rain 1hr cm | rain 24hr cm | rain mn cm | humidity % | barometer mb |
| 20260507034528 | 8 | 264 | 1.6 | 6.4 | 0.00 | 0.00 | 0.00 | 75 | 1014.7 |
| 20260507034026 | 8 | 74 | 0.0 | 6.4 | 0.00 | 0.00 | 0.00 | 74 | 1014.6 |
| 20260507033524 | 8 | 286 | 0.0 | 4.8 | 0.00 | 0.00 | 0.00 | 73 | 1014.7 |
| 20260507033021 | 8 | 35 | 0.0 | 3.2 | 0.00 | 0.00 | 0.00 | 74 | 1014.7 |
| 20260507032518 | 8 | 297 | 1.6 | 4.8 | 0.00 | 0.00 | 0.00 | 72 | 1014.5 |
| 20260507032014 | 8 | 306 | 1.6 | 4.8 | 0.00 | 0.00 | 0.00 | 73 | 1014.7 |
| 20260507031510 | 8 | 332 | 3.2 | 6.4 | 0.00 | 0.00 | 0.00 | 73 | 1014.4 |
| 20260507031008 | 8 | 282 | 0.0 | 6.4 | 0.00 | 0.00 | 0.00 | 72 | 1014.6 |
| 20260507030505 | 8 | 277 | 0.0 | 4.8 | 0.00 | 0.00 | 0.00 | 71 | 1014.5 |
| 20260507030002 | 8 | 221 | 3.2 | 6.4 | 0.00 | 0.00 | 0.00 | 72 | 1014.5 |
| 20260507025459 | 8 | 240 | 1.6 | 8.0 | 0.00 | 0.00 | 0.00 | 72 | 1014.8 |
| 20260507024957 | 8 | 237 | 1.6 | 4.8 | 0.00 | 0.00 | 0.00 | 72 | 1014.5 |
| 20260507024454 | 9 | 270 | 3.2 | 8.0 | 0.00 | 0.00 | 0.00 | 72 | 1014.5 |
| 20260507023950 | 9 | 254 | 0.0 | 4.8 | 0.00 | 0.00 | 0.00 | 71 | 1014.4 |
| 20260507023447 | 9 | 0 | 3.2 | 6.4 | 0.00 | 0.00 | 0.00 | 70 | 1014.3 |
| 20260507022944 | 8 | 198 | 0.0 | 6.4 | 0.00 | 0.00 | 0.00 | 71 | 1014.3 |
| 20260507022441 | 9 | 270 | 0.0 | 3.2 | 0.00 | 0.00 | 0.00 | 72 | 1014.0 |
| 20260507021936 | 9 | 181 | 6.4 | 6.4 | 0.00 | 0.00 | 0.00 | 71 | 1014.5 |
| 20260507021432 | 8 | 262 | 1.6 | 8.0 | 0.00 | 0.00 | 0.00 | 72 | 1014.2 |
| 20260507020930 | 8 | 323 | 3.2 | 4.8 | 0.00 | 0.00 | 0.00 | 72 | 1014.1 |
| 20260507020426 | 8 | 203 | 0.0 | 6.4 | 0.00 | 0.00 | 0.00 | 73 | 1014.3 |
| 20260507015923 | 8 | 198 | 1.6 | 8.0 | 0.00 | 0.00 | 0.00 | 73 | 1014.1 |
| 20260507015422 | 8 | 255 | 0.0 | 3.2 | 0.00 | 0.00 | 0.00 | 71 | 1014.2 |
| 20260507014918 | 8 | 264 | 0.0 | 6.4 | 0.00 | 0.00 | 0.00 | 71 | 1014.4 |
| 20260507014414 | 8 | 4 | 3.2 | 3.2 | 0.00 | 0.00 | 0.00 | 70 | 1014.1 |
| 20260507013911 | 8 | 280 | 0.0 | 3.2 | 0.00 | 0.00 | 0.00 | 69 | 1014.1 |
| 20260507013408 | 8 | 243 | 0.0 | 4.8 | 0.00 | 0.00 | 0.00 | 70 | 1014.3 |
| 20260507012906 | 8 | 353 | 0.0 | 4.8 | 0.00 | 0.00 | 0.00 | 69 | 1014.0 |
| 20260507012402 | 8 | 0 | 0.0 | 4.8 | 0.00 | 0.00 | 0.00 | 71 | 1014.1 |
| 20260507011859 | 8 | 353 | 0.0 | 3.2 | 0.00 | 0.00 | 0.00 | 71 | 1014.3 |
| 20260507011355 | 8 | 326 | 6.4 | 8.0 | 0.00 | 0.00 | 0.00 | 70 | 1014.1 |
| 20260507010849 | 8 | 280 | 3.2 | 8.0 | 0.00 | 0.00 | 0.00 | 70 | 1014.2 |
| 20260507010345 | 8 | 289 | 3.2 | 6.4 | 0.00 | 0.00 | 0.00 | 70 | 1014.1 |
| 20260507005843 | 8 | 0 | 3.2 | 4.8 | 0.00 | 0.00 | 0.00 | 70 | 1014.1 |
| 20260507005339 | 8 | 254 | 0.0 | 3.2 | 0.00 | 0.00 | 0.00 | 71 | 1013.9 |
| 20260507004836 | 8 | 287 | 0.0 | 6.4 | 0.00 | 0.00 | 0.00 | 70 | 1014.0 |
| 20260507004333 | 8 | 29 | 3.2 | 4.8 | 0.00 | 0.00 | 0.00 | 70 | 1014.0 |
| 20260507003830 | 8 | 253 | 0.0 | 4.8 | 0.00 | 0.00 | 0.00 | 71 | 1013.7 |
| 20260507003326 | 8 | 218 | 3.2 | 8.0 | 0.00 | 0.00 | 0.00 | 71 | 1013.5 |
| 20260507002821 | 8 | 261 | 0.0 | 8.0 | 0.00 | 0.00 | 0.00 | 70 | 1013.6 |
| 20260507002317 | 8 | 293 | 3.2 | 6.4 | 0.00 | 0.00 | 0.00 | 71 | 1014.0 |
| 20260507001815 | 8 | 229 | 1.6 | 9.7 | 0.00 | 0.00 | 0.00 | 71 | 1013.7 |
| 20260507001312 | 8 | 254 | 0.0 | 8.0 | 0.00 | 0.00 | 0.00 | 70 | 1013.7 |
| 20260507000808 | 8 | 279 | 4.8 | 11.3 | 0.00 | 0.00 | 0.00 | 69 | 1013.6 |
| 20260507000306 | 8 | 346 | 1.6 | 12.9 | 0.00 | 0.00 | 0.00 | 69 | 1013.7 |
| 20260506235800 | 8 | 265 | 3.2 | 11.3 | 0.00 | 0.00 | 0.00 | 68 | 1013.8 |
| 20260506235256 | 9 | 207 | 4.8 | 11.3 | 0.00 | 0.00 | 0.00 | 67 | 1013.5 |
| 20260506234754 | 9 | 253 | 4.8 | 9.7 | 0.00 | 0.00 | 0.00 | 68 | 1013.5 |
| 20260506234251 | 9 | 249 | 4.8 | 9.7 | 0.00 | 0.00 | 0.00 | 67 | 1013.5 |
| 20260506233748 | 10 | 295 | 3.2 | 8.0 | 0.00 | 0.00 | 0.00 | 67 | 1013.3 |
| 20260506233244 | 10 | 241 | 3.2 | 8.0 | 0.00 | 0.00 | 0.00 | 67 | 1013.4 |
| 20260506232741 | 9 | 173 | 4.8 | 8.0 | 0.00 | 0.00 | 0.00 | 67 | 1013.4 |
| 20260506232236 | 9 | 255 | 1.6 | 9.7 | 0.00 | 0.00 | 0.00 | 68 | 1013.4 |
| 20260506231734 | 9 | 187 | 6.4 | 8.0 | 0.00 | 0.00 | 0.00 | 68 | 1013.3 |
| 20260506231232 | 10 | 250 | 0.0 | 6.4 | 0.00 | 0.00 | 0.00 | 67 | 1013.3 |
| 20260506230728 | 9 | 216 | 3.2 | 9.7 | 0.00 | 0.00 | 0.00 | 66 | 1013.3 |
| 20260506230225 | 10 | 249 | 1.6 | 12.9 | 0.00 | 0.00 | 0.00 | 66 | 1013.3 |
| 20260506225721 | 10 | 178 | 4.8 | 4.8 | 0.00 | 0.00 | 0.00 | 65 | 1013.2 |
| 20260506225219 | 10 | 324 | 0.0 | 4.8 | 0.00 | 0.00 | 0.00 | 66 | 1013.3 |
| 20260506224715 | 10 | 241 | 0.0 | 9.7 | 0.00 | 0.00 | 0.00 | 66 | 1013.0 |
| 20260506224212 | 10 | 266 | 4.8 | 9.7 | 0.00 | 0.00 | 0.00 | 66 | 1013.0 |
| 20260506223708 | 9 | 258 | 4.8 | 9.7 | 0.00 | 0.00 | 0.00 | 66 | 1013.1 |
| 20260506223204 | 9 | 328 | 4.8 | 9.7 | 0.00 | 0.00 | 0.00 | 67 | 1012.9 |
| 20260506222702 | 9 | 253 | 4.8 | 8.0 | 0.00 | 0.00 | 0.00 | 66 | 1013.0 |
| 20260506222157 | 9 | 322 | 4.8 | 9.7 | 0.00 | 0.00 | 0.00 | 67 | 1013.0 |
| 20260506221655 | 10 | 177 | 8.0 | 8.0 | 0.00 | 0.00 | 0.00 | 65 | 1012.8 |
| 20260506221153 | 10 | 283 | 4.8 | 14.5 | 0.00 | 0.00 | 0.00 | 66 | 1012.9 |
| 20260506220649 | 10 | 236 | 3.2 | 8.0 | 0.00 | 0.00 | 0.00 | 66 | 1012.7 |
| 20260506220145 | 10 | 247 | 6.4 | 8.0 | 0.00 | 0.00 | 0.00 | 65 | 1012.6 |
| 20260506215642 | 10 | 188 | 4.8 | 14.5 | 0.00 | 0.00 | 0.00 | 65 | 1012.7 |
| 20260506215137 | 10 | 246 | 3.2 | 6.4 | 0.00 | 0.00 | 0.00 | 65 | 1012.7 |
| 20260506214634 | 10 | 195 | 9.7 | 16.1 | 0.00 | 0.00 | 0.00 | 65 | 1012.6 |
| 20260506214131 | 10 | 248 | 8.0 | 11.3 | 0.00 | 0.00 | 0.00 | 66 | 1012.7 |
| 20260506213630 | 10 | 195 | 4.8 | 14.5 | 0.00 | 0.00 | 0.00 | 66 | 1012.7 |
| 20260506213126 | 10 | 205 | 11.3 | 11.3 | 0.00 | 0.00 | 0.00 | 67 | 1012.4 |
| 20260506212624 | 10 | 253 | 8.0 | 14.5 | 0.00 | 0.00 | 0.00 | 66 | 1012.5 |
| 20260506212118 | 10 | 235 | 6.4 | 16.1 | 0.00 | 0.00 | 0.00 | 67 | 1012.4 |
| 20260506211614 | 10 | 266 | 4.8 | 8.0 | 0.00 | 0.00 | 0.00 | 66 | 1012.3 |
| 20260506211111 | 10 | 217 | 6.4 | 14.5 | 0.00 | 0.00 | 0.00 | 64 | 1012.2 |
| 20260506210608 | 10 | 253 | 8.0 | 17.7 | 0.00 | 0.00 | 0.00 | 64 | 1012.4 |
| 20260506210105 | 10 | 173 | 8.0 | 20.9 | 0.00 | 0.00 | 0.00 | 62 | 1011.9 |
| 20260506205602 | 11 | 177 | 17.7 | 32.2 | 0.00 | 0.00 | 0.00 | 59 | 1012.0 |
| 20260506205056 | 11 | 45 | 3.2 | 11.3 | 0.00 | 0.00 | 0.00 | 53 | 1012.1 |
| 20260506204555 | 12 | 121 | 4.8 | 8.0 | 0.00 | 0.00 | 0.00 | 52 | 1011.8 |
| 20260506204051 | 12 | 194 | 1.6 | 12.9 | 0.00 | 0.00 | 0.00 | 52 | 1012.0 |
| 20260506203550 | 11 | 175 | 4.8 | 14.5 | 0.00 | 0.00 | 0.00 | 54 | 1012.0 |
| 20260506203046 | 11 | 188 | 4.8 | 9.7 | 0.00 | 0.00 | 0.00 | 55 | 1012.0 |
| 20260506202544 | 11 | 152 | 4.8 | 6.4 | 0.00 | 0.00 | 0.00 | 55 | 1012.2 |
| 20260506202040 | 11 | 221 | 6.4 | 11.3 | 0.00 | 0.00 | 0.00 | 56 | 1011.9 |
| 20260506201538 | 10 | 148 | 9.7 | 14.5 | 0.00 | 0.00 | 0.00 | 55 | 1011.9 |
| 20260506201034 | 10 | 180 | 0.0 | 8.0 | 0.00 | 0.00 | 0.00 | 57 | 1012.0 |
| 20260506200530 | 10 | 139 | 3.2 | 6.4 | 0.00 | 0.00 | 0.00 | 57 | 1011.6 |
| 20260506200027 | 11 | 81 | 4.8 | 19.3 | 0.00 | 0.00 | 0.00 | 58 | 1012.2 |
| 20260506195524 | 10 | 151 | 11.3 | 11.3 | 0.00 | 0.00 | 0.00 | 56 | 1011.8 |
| 20260506195020 | 11 | 204 | 8.0 | 8.0 | 0.00 | 0.00 | 0.00 | 56 | 1011.9 |
| 20260506194518 | 10 | 152 | 4.8 | 9.7 | 0.00 | 0.00 | 0.00 | 58 | 1011.9 |
| 20260506194014 | 10 | 83 | 4.8 | 8.0 | 0.00 | 0.00 | 0.00 | 59 | 1011.6 |
| 20260506193512 | 10 | 94 | 4.8 | 6.4 | 0.00 | 0.00 | 0.00 | 58 | 1011.5 |
| 20260506193009 | 10 | 85 | 3.2 | 4.8 | 0.00 | 0.00 | 0.00 | 60 | 1011.5 |
| 20260506192505 | 10 | 45 | 4.8 | 12.9 | 0.00 | 0.00 | 0.00 | 60 | 1011.6 |
| 20260506192001 | 10 | 345 | 0.0 | 4.8 | 0.00 | 0.00 | 0.00 | 61 | 1011.8 |
| 20260506191458 | 10 | 353 | 0.0 | 8.0 | 0.00 | 0.00 | 0.00 | 62 | 1011.6 |
| 20260506190955 | 10 | 143 | 6.4 | 6.4 | 0.00 | 0.00 | 0.00 | 63 | 1011.5 |
| 20260506190452 | 10 | 114 | 1.6 | 8.0 | 0.00 | 0.00 | 0.00 | 63 | 1011.8 |
| 20260506185948 | 10 | 212 | 0.0 | 8.0 | 0.00 | 0.00 | 0.00 | 63 | 1011.8 |
| 20260506185446 | 9 | 160 | 8.0 | 12.9 | 0.00 | 0.00 | 0.00 | 63 | 1011.8 |
| 20260506184942 | 9 | 32 | 0.0 | 12.9 | 0.00 | 0.00 | 0.00 | 63 | 1011.9 |
| 20260506184439 | 10 | 140 | 4.8 | 8.0 | 0.00 | 0.00 | 0.00 | 63 | 1011.9 |
| 20260506183937 | 9 | 148 | 4.8 | 9.7 | 0.00 | 0.00 | 0.00 | 64 | 1011.8 |
| 20260506183432 | 9 | 0 | 3.2 | 6.4 | 0.00 | 0.00 | 0.00 | 65 | 1011.8 |
| 20260506182929 | 9 | 90 | 0.0 | 11.3 | 0.00 | 0.00 | 0.00 | 65 | 1011.9 |
| 20260506182426 | 8 | 159 | 3.2 | 8.0 | 0.00 | 0.00 | 0.00 | 65 | 1011.8 |
| 20260506181924 | 9 | 130 | 11.3 | 12.9 | 0.00 | 0.00 | 0.00 | 65 | 1011.6 |
| 20260506181422 | 9 | 151 | 3.2 | 6.4 | 0.00 | 0.00 | 0.00 | 65 | 1011.4 |
| 20260506180918 | 8 | 163 | 4.8 | 9.7 | 0.00 | 0.00 | 0.00 | 67 | 1011.9 |
| 20260506180414 | 9 | 45 | 3.2 | 4.8 | 0.00 | 0.00 | 0.00 | 67 | 1011.5 |
| 20260506175911 | 8 | 29 | 3.2 | 8.0 | 0.00 | 0.00 | 0.00 | 67 | 1011.6 |
| 20260506175408 | 8 | 123 | 6.4 | 9.7 | 0.00 | 0.00 | 0.00 | 67 | 1011.5 |
| 20260506174905 | 8 | 189 | 3.2 | 9.7 | 0.00 | 0.00 | 0.00 | 66 | 1011.5 |
| 20260506174403 | 8 | 163 | 4.8 | 8.0 | 0.00 | 0.00 | 0.00 | 66 | 1011.4 |
| 20260506173900 | 8 | 50 | 4.8 | 8.0 | 0.00 | 0.00 | 0.00 | 66 | 1011.5 |
| 20260506173356 | 8 | 90 | 1.6 | 4.8 | 0.00 | 0.00 | 0.00 | 67 | 1011.6 |
| 20260506172853 | 8 | 146 | 3.2 | 4.8 | 0.00 | 0.00 | 0.00 | 69 | 1011.3 |
| 20260506172350 | 7 | 52 | 3.2 | 3.2 | 0.00 | 0.00 | 0.00 | 72 | 1011.5 |
| 20260506171847 | 7 | 32 | 0.0 | 4.8 | 0.00 | 0.00 | 0.00 | 73 | 1011.5 |
| 20260506171344 | 7 | 23 | 0.0 | 4.8 | 0.00 | 0.00 | 0.00 | 73 | 1011.6 |
| 20260506170842 | 7 | 102 | 1.6 | 6.4 | 0.00 | 0.00 | 0.00 | 74 | 1011.6 |
| 20260506170338 | 7 | 74 | 0.0 | 3.2 | 0.00 | 0.00 | 0.00 | 74 | 1011.6 |
| 20260506165837 | 7 | 180 | 0.0 | 4.8 | 0.00 | 0.00 | 0.00 | 75 | 1011.3 |
| 20260506165335 | 7 | 185 | 4.8 | 4.8 | 0.00 | 0.00 | 0.00 | 75 | 1011.5 |
| 20260506164831 | 7 | 145 | 1.6 | 4.8 | 0.00 | 0.00 | 0.00 | 76 | 1011.4 |
| 20260506164328 | 6 | 158 | 0.0 | 4.8 | 0.00 | 0.00 | 0.00 | 77 | 1011.2 |
| 20260506163825 | 6 | 75 | 1.6 | 4.8 | 0.00 | 0.00 | 0.00 | 77 | 1011.4 |
| 20260506163320 | 6 | 66 | 1.6 | 3.2 | 0.00 | 0.00 | 0.00 | 77 | 1011.4 |
| 20260506162815 | 6 | 0 | 0.0 | 4.8 | 0.00 | 0.00 | 0.00 | 78 | 1011.5 |
| 20260506162314 | 6 | 68 | 0.0 | 3.2 | 0.00 | 0.00 | 0.00 | 80 | 1011.3 |
| 20260506161811 | 6 | 66 | 0.0 | 3.2 | 0.00 | 0.00 | 0.00 | 80 | 1011.2 |
| 20260506161308 | 6 | 144 | 3.2 | 3.2 | 0.00 | 0.00 | 0.00 | 80 | 1011.5 |
| 20260506160806 | 6 | 126 | 0.0 | 4.8 | 0.00 | 0.00 | 0.00 | 79 | 1011.4 |
| 20260506160302 | 6 | 124 | 3.2 | 3.2 | 0.00 | 0.00 | 0.00 | 80 | 1011.2 |
| 20260506155801 | 6 | 69 | 0.0 | 1.6 | 0.00 | 0.00 | 0.00 | 81 | 1011.3 |
| 20260506155257 | 6 | 131 | 1.6 | 3.2 | 0.00 | 0.00 | 0.00 | 81 | 1011.4 |
| 20260506153410 | 5 | 12 | 1.6 | 3.2 | 0.00 | 0.00 | 0.00 | 84 | 1011.3 |
| 20260506152907 | 5 | 41 | 0.0 | 3.2 | 0.00 | 0.00 | 0.00 | 85 | 1011.2 |
| 20260506152404 | 5 | 71 | 0.0 | 3.2 | 0.00 | 0.00 | 0.00 | 87 | 1011.3 |
| 20260506151903 | 5 | 75 | 0.0 | 3.2 | 0.00 | 0.00 | 0.00 | 88 | 1011.4 |
| 20260506151359 | 5 | 98 | 0.0 | 1.6 | 0.00 | 0.00 | 0.00 | 90 | 1011.2 |
| 20260506150857 | 5 | 165 | 0.0 | 1.6 | 0.00 | 0.00 | 0.00 | 89 | 1011.1 |
| 20260506150353 | 5 | 77 | 0.0 | 0.0 | 0.00 | 0.00 | 0.00 | 89 | 1011.3 |
| 20260506145850 | 5 | 77 | 0.0 | 1.6 | 0.00 | 0.00 | 0.00 | 89 | 1011.2 |
| 20260506145346 | 5 | 14 | 0.0 | 0.0 | 0.00 | 0.00 | 0.00 | 88 | 1011.1 |
| 20260506144844 | 5 | 14 | 0.0 | 0.0 | 0.00 | 0.00 | 0.00 | 87 | 1011.2 |
| 20260506144340 | 5 | 14 | 0.0 | 0.0 | 0.00 | 0.00 | 0.00 | 87 | 1011.2 |
| 20260506143838 | 5 | 14 | 0.0 | 0.0 | 0.00 | 0.00 | 0.00 | 88 | 1011.3 |
| 20260506143335 | 4 | 14 | 0.0 | 0.0 | 0.00 | 0.00 | 0.00 | 88 | 1011.0 |
| 20260506142833 | 4 | 14 | 0.0 | 0.0 | 0.00 | 0.00 | 0.00 | 89 | 1011.2 |
| 20260506142331 | 4 | 14 | 0.0 | 0.0 | 0.00 | 0.00 | 0.00 | 88 | 1011.2 |
| 20260506141829 | 4 | 14 | 0.0 | 0.0 | 0.00 | 0.00 | 0.00 | 89 | 1011.2 |
| 20260506141327 | 4 | 14 | 0.0 | 0.0 | 0.00 | 0.00 | 0.00 | 89 | 1011.0 |
| 20260506140825 | 3 | 14 | 0.0 | 0.0 | 0.00 | 0.00 | 0.00 | 90 | 1011.4 |
| 20260506140321 | 3 | 14 | 0.0 | 0.0 | 0.00 | 0.00 | 0.00 | 91 | 1011.4 |
| 20260506135818 | 3 | 14 | 0.0 | 0.0 | 0.00 | 0.00 | 0.00 | 91 | 1011.3 |
| 20260506135314 | 3 | 14 | 0.0 | 1.6 | 0.00 | 0.00 | 0.00 | 91 | 1011.5 |
| 20260506134811 | 3 | 74 | 0.0 | 0.0 | 0.00 | 0.00 | 0.00 | 91 | 1011.1 |
| 20260506134308 | 3 | 74 | 0.0 | 0.0 | 0.00 | 0.00 | 0.00 | 90 | 1011.1 |
| 20260506133805 | 3 | 74 | 0.0 | 0.0 | 0.00 | 0.00 | 0.00 | 90 | 1011.2 |
| 20260506133302 | 3 | 74 | 0.0 | 0.0 | 0.00 | 0.00 | 0.00 | 90 | 1011.1 |
| 20260506132758 | 4 | 74 | 0.0 | 0.0 | 0.00 | 0.00 | 0.00 | 90 | 1011.3 |
| 20260506132255 | 4 | 74 | 0.0 | 0.0 | 0.00 | 0.00 | 0.00 | 88 | 1011.3 |
| 20260506131754 | 5 | 75 | 0.0 | 0.0 | 0.00 | 0.00 | 0.00 | 88 | 1011.1 |
| 20260506131249 | 5 | 75 | 0.0 | 0.0 | 0.00 | 0.00 | 0.00 | 88 | 1011.1 |
| 20260506130746 | 5 | 75 | 0.0 | 1.6 | 0.00 | 0.00 | 0.00 | 88 | 1010.9 |
| 20260506130243 | 5 | 15 | 0.0 | 0.0 | 0.00 | 0.00 | 0.00 | 87 | 1011.1 |
| 20260506125741 | 5 | 15 | 0.0 | 0.0 | 0.00 | 0.00 | 0.00 | 85 | 1011.1 |
| 20260506125239 | 5 | 15 | 0.0 | 0.0 | 0.00 | 0.00 | 0.00 | 84 | 1011.3 |
| 20260506124737 | 5 | 15 | 0.0 | 0.0 | 0.00 | 0.00 | 0.00 | 85 | 1011.2 |
| 20260506124234 | 5 | 15 | 0.0 | 1.6 | 0.00 | 0.00 | 0.00 | 85 | 1011.1 |
| 20260506123731 | 5 | 23 | 0.0 | 0.0 | 0.00 | 0.00 | 0.00 | 84 | 1011.2 |
| 20260506123230 | 5 | 23 | 0.0 | 0.0 | 0.00 | 0.00 | 0.00 | 84 | 1011.0 |
| 20260506122726 | 5 | 23 | 0.0 | 1.6 | 0.00 | 0.00 | 0.00 | 82 | 1011.0 |
| 20260506122224 | 5 | 20 | 0.0 | 0.0 | 0.00 | 0.00 | 0.00 | 82 | 1011.0 |
| 20260506121722 | 5 | 26 | 3.2 | 4.8 | 0.00 | 0.00 | 0.00 | 80 | 1011.1 |
| 20260506121218 | 5 | 29 | 0.0 | 1.6 | 0.00 | 0.00 | 0.00 | 78 | 1011.1 |
| 20260506120716 | 5 | 73 | 0.0 | 3.2 | 0.00 | 0.00 | 0.00 | 77 | 1011.0 |
| 20260506120213 | 6 | 7 | 0.0 | 3.2 | 0.00 | 0.00 | 0.00 | 77 | 1010.9 |
| 20260506115711 | 6 | 6 | 1.6 | 4.8 | 0.00 | 0.00 | 0.00 | 74 | 1010.9 |
| 20260506115209 | 6 | 312 | 0.0 | 6.4 | 0.00 | 0.00 | 0.00 | 73 | 1010.9 |
| 20260506114706 | 6 | 289 | 1.6 | 1.6 | 0.00 | 0.00 | 0.00 | 72 | 1010.8 |
| 20260506114204 | 6 | 189 | 4.8 | 4.8 | 0.00 | 0.00 | 0.00 | 72 | 1010.7 |
| 20260506113703 | 6 | 18 | 0.0 | 3.2 | 0.00 | 0.00 | 0.00 | 71 | 1010.8 |
| 20260506113200 | 6 | 54 | 0.0 | 3.2 | 0.00 | 0.00 | 0.00 | 73 | 1010.6 |
| 20260506112655 | 6 | 30 | 3.2 | 3.2 | 0.00 | 0.00 | 0.00 | 73 | 1010.6 |
| 20260506112153 | 6 | 294 | 0.0 | 4.8 | 0.00 | 0.00 | 0.00 | 74 | 1010.4 |
| 20260506111651 | 6 | 265 | 3.2 | 3.2 | 0.00 | 0.00 | 0.00 | 73 | 1010.2 |
| 20260506111149 | 6 | 263 | 4.8 | 6.4 | 0.00 | 0.00 | 0.00 | 72 | 1010.2 |
| 20260506110646 | 6 | 194 | 0.0 | 3.2 | 0.00 | 0.00 | 0.00 | 71 | 1010.2 |
| 20260506110143 | 6 | 151 | 1.6 | 6.4 | 0.00 | 0.00 | 0.00 | 71 | 1010.1 |
| 20260506105639 | 6 | 270 | 0.0 | 1.6 | 0.00 | 0.00 | 0.00 | 69 | 1010.1 |
| 20260506105136 | 6 | 236 | 3.2 | 4.8 | 0.00 | 0.00 | 0.00 | 67 | 1010.1 |
| 20260506104634 | 6 | 48 | 0.0 | 3.2 | 0.00 | 0.00 | 0.00 | 67 | 1010.1 |
| 20260506104132 | 6 | 69 | 0.0 | 3.2 | 0.00 | 0.00 | 0.00 | 68 | 1009.9 |
| 20260506103629 | 6 | 69 | 0.0 | 3.2 | 0.00 | 0.00 | 0.00 | 69 | 1009.8 |
| 20260506103126 | 6 | 98 | 0.0 | 3.2 | 0.00 | 0.00 | 0.00 | 69 | 1009.9 |
| 20260506102624 | 6 | 133 | 0.0 | 6.4 | 0.00 | 0.00 | 0.00 | 69 | 1009.8 |
| 20260506102121 | 6 | 34 | 3.2 | 4.8 | 0.00 | 0.00 | 0.00 | 69 | 1009.8 |
| 20260506101617 | 6 | 66 | 1.6 | 3.2 | 0.00 | 0.00 | 0.00 | 69 | 1009.7 |
| 20260506101114 | 6 | 28 | 3.2 | 4.8 | 0.00 | 0.00 | 0.00 | 68 | 1009.7 |
| 20260506100613 | 6 | 66 | 0.0 | 4.8 | 0.00 | 0.00 | 0.00 | 66 | 1009.5 |
| 20260506100110 | 7 | 26 | 3.2 | 4.8 | 0.00 | 0.00 | 0.00 | 63 | 1009.5 |
| 20260506095609 | 7 | 77 | 0.0 | 6.4 | 0.00 | 0.00 | 0.00 | 62 | 1009.4 |
| 20260506095105 | 7 | 5 | 0.0 | 9.7 | 0.00 | 0.00 | 0.00 | 61 | 1009.4 |
| 20260506094603 | 7 | 150 | 3.2 | 6.4 | 0.00 | 0.00 | 0.00 | 62 | 1009.4 |
| 20260506094101 | 7 | 12 | 1.6 | 8.0 | 0.00 | 0.00 | 0.00 | 61 | 1009.2 |
| 20260506093559 | 7 | 68 | 4.8 | 4.8 | 0.00 | 0.00 | 0.00 | 60 | 1009.2 |
| 20260506093055 | 7 | 145 | 4.8 | 16.1 | 0.00 | 0.00 | 0.00 | 60 | 1009.2 |
| 20260506092554 | 7 | 103 | 4.8 | 8.0 | 0.00 | 0.00 | 0.00 | 61 | 1009.2 |
| 20260506092050 | 7 | 143 | 3.2 | 6.4 | 0.00 | 0.00 | 0.00 | 61 | 1009.1 |
| 20260506091548 | 7 | 191 | 3.2 | 19.3 | 0.00 | 0.00 | 0.00 | 61 | 1009.1 |
| 20260506091045 | 7 | 150 | 4.8 | 12.9 | 0.00 | 0.00 | 0.00 | 62 | 1009.3 |
| 20260506090543 | 7 | 98 | 3.2 | 12.9 | 0.00 | 0.00 | 0.00 | 62 | 1009.0 |
| 20260506090039 | 7 | 60 | 1.6 | 14.5 | 0.00 | 0.00 | 0.00 | 62 | 1009.2 |
| 20260506085536 | 7 | 135 | 3.2 | 12.9 | 0.00 | 0.00 | 0.00 | 62 | 1008.9 |
| 20260506085032 | 7 | 143 | 4.8 | 11.3 | 0.00 | 0.00 | 0.00 | 62 | 1009.0 |
| 20260506084530 | 7 | 90 | 4.8 | 14.5 | 0.00 | 0.00 | 0.00 | 62 | 1008.9 |
| 20260506084025 | 7 | 74 | 0.0 | 9.7 | 0.00 | 0.00 | 0.00 | 63 | 1009.1 |
| 20260506083523 | 7 | 150 | 6.4 | 14.5 | 0.00 | 0.00 | 0.00 | 62 | 1008.8 |
| 20260506083020 | 7 | 148 | 12.9 | 14.5 | 0.00 | 0.00 | 0.00 | 62 | 1009.0 |
| 20260506082517 | 7 | 135 | 3.2 | 14.5 | 0.00 | 0.00 | 0.00 | 63 | 1008.7 |
| 20260506082013 | 7 | 152 | 6.4 | 11.3 | 0.00 | 0.00 | 0.00 | 62 | 1008.9 |
| 20260506081511 | 7 | 147 | 6.4 | 16.1 | 0.00 | 0.00 | 0.00 | 63 | 1008.7 |
| 20260506081009 | 7 | 15 | 3.2 | 16.1 | 0.00 | 0.00 | 0.00 | 63 | 1008.7 |
| 20260506080506 | 7 | 141 | 3.2 | 6.4 | 0.00 | 0.00 | 0.00 | 64 | 1008.7 |
| 20260506073449 | 7 | 148 | 4.8 | 9.7 | 0.00 | 0.00 | 0.00 | 63 | 1008.6 |
| 20260506072946 | 7 | 125 | 0.0 | 16.1 | 0.00 | 0.00 | 0.00 | 63 | 1008.4 |
| 20260506072443 | 7 | 199 | 8.0 | 9.7 | 0.00 | 0.00 | 0.00 | 64 | 1008.7 |
| 20260506071941 | 7 | 125 | 4.8 | 14.5 | 0.00 | 0.00 | 0.00 | 64 | 1008.6 |
| 20260506071439 | 7 | 167 | 4.8 | 12.9 | 0.00 | 0.00 | 0.00 | 64 | 1008.3 |
| 20260506070936 | 7 | 154 | 4.8 | 14.5 | 0.00 | 0.00 | 0.00 | 65 | 1008.4 |
| 20260506070433 | 7 | 128 | 3.2 | 14.5 | 0.00 | 0.00 | 0.00 | 64 | 1008.2 |
| 20260506062410 | 7 | 93 | 4.8 | 16.1 | 0.00 | 0.00 | 0.00 | 64 | 1007.9 |
| 20260506061906 | 7 | 146 | 8.0 | 20.9 | 0.00 | 0.00 | 0.00 | 63 | 1008.0 |
| 20260506061403 | 7 | 33 | 9.7 | 11.3 | 0.00 | 0.00 | 0.00 | 63 | 1007.8 |
| 20260506060901 | 7 | 127 | 3.2 | 16.1 | 0.00 | 0.00 | 0.00 | 63 | 1007.7 |
| 20260506060358 | 7 | 135 | 4.8 | 16.1 | 0.00 | 0.00 | 0.00 | 63 | 1007.6 |
| 20260506051330 | 8 | 106 | 0.0 | 12.9 | 0.00 | 0.00 | 0.00 | 63 | 1007.4 |
| 20260506050828 | 8 | 15 | 3.2 | 12.9 | 0.00 | 0.00 | 0.00 | 63 | 1007.3 |
| 20260506050325 | 8 | 132 | 9.7 | 16.1 | 0.00 | 0.00 | 0.00 | 62 | 1007.2 |
| 20260506044815 | 8 | 6 | 0.0 | 9.7 | 0.00 | 0.00 | 0.00 | 62 | 1007.2 |
| 20260506044314 | 8 | 75 | 3.2 | 14.5 | 0.00 | 0.00 | 0.00 | 61 | 1007.2 |
| 20260506043810 | 8 | 122 | 6.4 | 16.1 | 0.00 | 0.00 | 0.00 | 61 | 1006.9 |
| 20260506043308 | 8 | 86 | 8.0 | 20.9 | 0.00 | 0.00 | 0.00 | 61 | 1007.1 |
| 20260506042806 | 8 | 79 | 11.3 | 11.3 | 0.00 | 0.00 | 0.00 | 62 | 1006.8 |
| 20260506042305 | 8 | 72 | 8.0 | 14.5 | 0.00 | 0.00 | 0.00 | 62 | 1007.0 |
| 20260506041803 | 9 | 165 | 9.7 | 16.1 | 0.00 | 0.00 | 0.00 | 61 | 1006.8 |
| 20260506041259 | 9 | 158 | 9.7 | 9.7 | 0.00 | 0.00 | 0.00 | 61 | 1006.9 |
| 20260506040757 | 9 | 81 | 0.0 | 20.9 | 0.00 | 0.00 | 0.00 | 61 | 1006.7 |
| 20260506040254 | 9 | 144 | 4.8 | 12.9 | 0.00 | 0.00 | 0.00 | 61 | 1006.9 |
| 20260506035750 | 10 | 14 | 6.4 | 25.7 | 0.00 | 0.00 | 0.00 | 61 | 1006.6 |
| 20260506035247 | 10 | 74 | 4.8 | 11.3 | 0.00 | 0.00 | 0.00 | 61 | 1006.6 |
| 20260506034744 | 10 | 122 | 6.4 | 16.1 | 0.00 | 0.00 | 0.00 | 59 | 1006.6 |